Regional Weather Roundup
Issued by NWS Jackson, KY

Home | Current Version | Previous Version | Text Only | Print | Product List | Glossary Off
Versions: 1 2 3 4 5 6 7 8 9 10 11 12 13 14 15 16 17 18 19 20 21 22 23 24 25 26 27 28 29 30 31 32 33 34 35 36 37 38 39 40 41 42 43 44 45 46 47 48 49 50

000
ASUS43 KJKL 232319
RWRJKL

EAST KENTUCKY HOURLY WEATHER ROUNDUP
NATIONAL WEATHER SERVICE JACKSON KY
700 PM EDT THU OCT 23 2014

NOTE: "FAIR" INDICATES FEW OR NO CLOUDS BELOW 12,000 FEET WITH
NO SIGNIFICANT WEATHER AND/OR OBSTRUCTIONS TO VISIBILITY.

* THESE REPORTS ARE NOT UNDER NWS QUALITY CONTROL AND MAY NOT
  REPORT WEATHER SUCH AS PRECIPITATION AND FOG.

KYZ079-080-083-085-087-088-110-112-115-119-120-240000
...EASTERN KENTUCKY...

CITY           SKY/WX    TMP DP  RH WIND       PRES   REMARKS
JACKSON        CLEAR     53  39  59 CALM      30.13R
LONDON         PTCLDY    56  41  57 CALM      30.12S
SOMERSET*      PTCLDY    54  41  62 CALM      30.13S
MONTICELLO*    MOCLDY    52  44  74 CALM      30.14S
MIDDLESBORO*   PTCLDY    54  43  68 CALM      30.12R
HARLAN APT*    CLEAR     54  39  58 NE9       30.12S
HAZARD APT*    CLEAR     55  41  58 CALM      30.13S
BLACK MTN*       N/A     41  37  87 N5          N/A
PIKEVILLE APT* CLEAR     52  41  66 E3        30.14S
BIG SANDY*     CLEAR     53  42  66 E3        30.14S
MOREHEAD APT*  CLEAR     52  43  71 CALM      30.16R
ASHLAND*       CLEAR     52  43  71 CALM      30.11S
$$

KYZ035-036-041-042-044-050-067-078-099-240000
...CENTRAL KENTUCKY...

CITY           SKY/WX    TMP DP  RH WIND       PRES   REMARKS
MT STERLING*   CLEAR     54  43  66 CALM      30.15S
FLEMING/MASON* CLEAR     54  41  62 SW3       30.15R
DANVILLE*      PTCLDY    50  43  76 CALM      30.14S
RICHMOND*      PTCLDY    55  41  58 CALM      30.13S
LEXINGTON      PTCLDY    55  42  61 NE5       30.14S
FRANKFORT      MOCLDY    54  41  61 SE3       30.13S
$$

KYZ091>093-OHZ055-061-077-WVZ005-015-034-035-042-240000
...SOUTHERN OHIO/WEST VIRGINIA...

CITY           SKY/WX    TMP DP  RH WIND       PRES   REMARKS
COVINGTON      MOCLDY    57  38  48 N3        30.13S
COLUMBUS       PTCLDY    54  41  61 N6        30.13R
DAYTON         MOCLDY    54  39  57 CALM      30.15R
WILMINGTON     PTCLDY    54  39  57 NW5       30.14R
HUNTINGTON     CLEAR     54  41  61 CALM      30.13R
CHARLESTON     PTCLDY    51  44  77 S6        30.12S
PINEVILLE*     CLOUDY    51  47  84 MISG      30.18R
BECKLEY        CLOUDY    47  41  80 N8        30.12R
BLUEFIELD      CLOUDY    48  39  71 NW7       30.12R
$$

VAZ002-007-008-TNZ017-027-036-066-071-240000
...SOUTHWEST VIRGINIA/EAST TENNESSEE...

CITY           SKY/WX    TMP DP  RH WIND       PRES   REMARKS
WISE*          CLEAR     45  37  76 N3        30.14S
JONESVILLE*    CLEAR     55  41  58 CALM      30.13S
ABINGDON*      CLEAR     51  40  67 CALM      30.13R
BRISTOL        PTCLDY    52  41  66 CALM      30.12R
KNOXVILLE      MOCLDY    55  41  59 NE5       30.09R
OAK RIDGE      MOCLDY    58  45  62 CALM      30.11S
CROSSVILLE     PTCLDY    58  39  49 N6        30.11S
NASHVILLE      MOCLDY    61  43  51 CALM      30.12R
$$

...KEY TO REMARKS...
VSB - VISIBILITY IN MILES
WCI - WIND CHILL INDEX
HX  - HEAT INDEX

$$



USA.gov is the U.S. government's official web portal to all federal, state and local government web resources and services.